| time (UTC) | temp F | wind direction | speed MPH | gust MPH | rain 1hr in | rain 24hr in | rain mn in | humidity % | barometer mb |
| 20260903152320 | 53 | 113 | 0.0 | 0.0 | 0.08 | 1.18 | 0.25 | 96 | 1008.3 |
| 20260903151830 | 54 | 103 | 0.0 | 0.0 | 0.04 | 1.14 | 0.24 | 96 | 1008.3 |
| 20260903151605 | 53 | 107 | 0.0 | 0.0 | 0.01 | 0.28 | 0.24 | 96 | 1007.4 |
| 20260903151319 | 54 | 98 | 0.0 | 0.0 | 0.04 | 1.14 | 0.24 | 96 | 1008.3 |
| 20260903150821 | 54 | 89 | 0.0 | 0.0 | 0.04 | 1.14 | 0.24 | 96 | 1008.3 |
| 20260903150337 | 54 | 108 | 0.0 | 0.0 | 0.04 | 1.14 | 0.24 | 96 | 1008.2 |
| 20260903145834 | 54 | 103 | 0.0 | 0.0 | 0.04 | 1.14 | 0.24 | 96 | 1008.3 |
| 20260903145342 | 54 | 103 | 0.0 | 0.0 | 0.04 | 1.14 | 0.24 | 96 | 1008.2 |
| 20260903144822 | 54 | 101 | 0.0 | 0.0 | 0.04 | 1.14 | 0.24 | 96 | 1008.1 |
| 20260903144613 | 53 | 115 | 0.0 | 0.0 | 0.01 | 0.28 | 0.24 | 96 | 1007.2 |
| 20260903144318 | 53 | 96 | 0.0 | 0.0 | 0.04 | 1.14 | 0.24 | 96 | 1008.1 |
| 20260903143337 | 53 | 95 | 0.0 | 0.0 | 0.00 | 1.10 | 0.23 | 96 | 1007.9 |
| 20260903143127 | 53 | 86 | 0.0 | 0.0 | 0.01 | 0.28 | 0.23 | 96 | 1007.1 |
| 20260903142832 | 53 | 88 | 0.0 | 0.0 | 0.04 | 1.10 | 0.23 | 96 | 1007.9 |
| 20260903142336 | 53 | 46 | 0.0 | 0.0 | 0.04 | 1.10 | 0.23 | 96 | 1007.9 |
| 20260903141847 | 53 | 60 | 0.0 | 0.0 | 0.04 | 1.10 | 0.23 | 96 | 1007.9 |
| 20260903141603 | 53 | 60 | 0.0 | 0.0 | 0.01 | 0.28 | 0.23 | 96 | 1006.9 |
| 20260903141332 | 53 | 60 | 0.0 | 0.0 | 0.04 | 1.10 | 0.23 | 96 | 1007.8 |
| 20260903140838 | 53 | 49 | 0.0 | 0.0 | 0.04 | 1.10 | 0.23 | 96 | 1007.9 |
| 20260903140332 | 53 | 40 | 0.0 | 0.0 | 0.04 | 1.10 | 0.23 | 96 | 1007.9 |
| 20260903140113 | 52 | 71 | 0.0 | 0.0 | 0.01 | 0.28 | 0.23 | 96 | 1007.0 |
| 20260903135818 | 53 | 96 | 0.0 | 0.0 | 0.04 | 1.10 | 0.23 | 96 | 1007.8 |
| 20260903135336 | 53 | 112 | 0.0 | 0.0 | 0.08 | 1.10 | 0.23 | 96 | 1007.9 |
| 20260903134901 | 53 | 84 | 0.0 | 0.0 | 0.08 | 1.10 | 0.23 | 96 | 1007.8 |
| 20260903134515 | 52 | 95 | 0.0 | 0.0 | 0.02 | 0.28 | 0.23 | 96 | 1006.8 |
| 20260903134338 | 53 | 96 | 0.0 | 0.0 | 0.08 | 1.10 | 0.23 | 96 | 1007.8 |
| 20260903133835 | 53 | 105 | 0.0 | 0.0 | 0.08 | 1.10 | 0.23 | 96 | 1007.8 |
| 20260903133329 | 53 | 107 | 0.0 | 0.0 | 0.04 | 1.06 | 0.22 | 96 | 1007.7 |
| 20260903133033 | 52 | 109 | 0.0 | 0.0 | 0.01 | 0.27 | 0.22 | 96 | 1006.7 |
| 20260903132825 | 53 | 100 | 0.0 | 0.0 | 0.04 | 1.06 | 0.22 | 96 | 1007.6 |
| 20260903132330 | 53 | 101 | 0.0 | 0.0 | 0.04 | 1.06 | 0.22 | 96 | 1007.6 |
| 20260903131539 | 52 | 108 | 0.0 | 0.0 | 0.01 | 0.27 | 0.22 | 96 | 1006.6 |
| 20260903131330 | 53 | 108 | 0.0 | 0.0 | 0.04 | 1.06 | 0.22 | 96 | 1007.5 |
| 20260903130822 | 53 | 120 | 0.0 | 0.0 | 0.04 | 1.06 | 0.22 | 96 | 1007.5 |
| 20260903130322 | 53 | 107 | 0.0 | 0.0 | 0.04 | 1.06 | 0.22 | 95 | 1007.5 |
| 20260903125834 | 53 | 110 | 0.0 | 0.0 | 0.04 | 1.06 | 0.22 | 95 | 1007.4 |
| 20260903125322 | 53 | 113 | 0.0 | 0.0 | 0.04 | 1.02 | 0.21 | 95 | 1007.4 |
| 20260903124848 | 53 | 94 | 0.0 | 0.0 | 0.04 | 1.02 | 0.21 | 95 | 1007.4 |
| 20260903124615 | 53 | 111 | 0.0 | 0.0 | 0.01 | 0.26 | 0.21 | 96 | 1006.3 |
| 20260903124325 | 53 | 111 | 0.0 | 0.0 | 0.04 | 1.02 | 0.21 | 95 | 1007.3 |
| 20260903123846 | 53 | 79 | 0.0 | 0.0 | 0.08 | 1.02 | 0.21 | 95 | 1007.3 |
| 20260903123328 | 53 | 90 | 0.0 | 0.0 | 0.08 | 1.02 | 0.21 | 95 | 1007.3 |
| 20260903123111 | 52 | 101 | 0.0 | 0.0 | 0.02 | 0.26 | 0.21 | 95 | 1006.3 |
| 20260903122842 | 53 | 90 | 0.0 | 0.0 | 0.08 | 1.02 | 0.21 | 95 | 1007.3 |
| 20260903122318 | 53 | 77 | 0.0 | 0.0 | 0.12 | 1.02 | 0.21 | 95 | 1007.3 |
| 20260903121836 | 53 | 94 | 0.0 | 0.0 | 0.12 | 1.02 | 0.21 | 95 | 1007.3 |
| 20260903121602 | 53 | 96 | 0.0 | 0.0 | 0.03 | 0.26 | 0.21 | 95 | 1006.3 |
| 20260903121332 | 53 | 85 | 0.0 | 0.0 | 0.12 | 1.02 | 0.21 | 95 | 1007.3 |
| 20260903120849 | 53 | 112 | 0.0 | 0.0 | 0.16 | 1.02 | 0.21 | 95 | 1007.3 |
| 20260903120357 | 53 | 77 | 0.0 | 0.0 | 0.16 | 1.02 | 0.21 | 95 | 1007.4 |
| 20260903120101 | 53 | 77 | 0.0 | 0.0 | 0.04 | 0.26 | 0.21 | 95 | 1006.3 |
| 20260903115822 | 53 | 79 | 0.0 | 0.0 | 0.16 | 1.02 | 0.21 | 95 | 1007.3 |
| 20260903115330 | 53 | 75 | 0.0 | 0.0 | 0.16 | 0.98 | 0.20 | 94 | 1007.4 |
| 20260903114839 | 53 | 92 | 0.0 | 0.0 | 0.16 | 0.98 | 0.20 | 94 | 1007.4 |
| 20260903114557 | 53 | 104 | 0.0 | 0.0 | 0.04 | 0.25 | 0.20 | 94 | 1006.4 |
| 20260903114318 | 53 | 60 | 0.0 | 0.0 | 0.16 | 0.98 | 0.20 | 94 | 1007.4 |
| 20260903113839 | 53 | 65 | 0.0 | 0.0 | 0.12 | 0.94 | 0.19 | 94 | 1007.3 |
| 20260903113320 | 53 | 94 | 0.0 | 0.0 | 0.16 | 0.94 | 0.19 | 94 | 1007.3 |
| 20260903113026 | 53 | 76 | 0.0 | 0.0 | 0.04 | 0.24 | 0.19 | 94 | 1006.2 |
| 20260903112840 | 53 | 58 | 0.0 | 0.0 | 0.16 | 0.94 | 0.19 | 94 | 1007.2 |
| 20260903112326 | 53 | 61 | 0.0 | 0.0 | 0.20 | 0.91 | 0.18 | 93 | 1007.0 |
| 20260903111820 | 53 | 93 | 0.0 | 0.0 | 0.24 | 0.91 | 0.18 | 93 | 1007.0 |
| 20260903111618 | 53 | 91 | 0.0 | 0.0 | 0.07 | 0.23 | 0.18 | 92 | 1006.0 |
| 20260903111358 | 53 | 101 | 0.0 | 0.0 | 0.31 | 0.91 | 0.18 | 92 | 1007.0 |
| 20260903110824 | 54 | 80 | 0.0 | 0.0 | 0.35 | 0.87 | 0.17 | 92 | 1007.1 |
| 20260903110334 | 54 | 91 | 0.0 | 0.0 | 0.59 | 0.87 | 0.17 | 92 | 1007.0 |
| 20260903110126 | 53 | 77 | 0.0 | 0.0 | 0.16 | 0.22 | 0.17 | 91 | 1006.0 |
| 20260903105818 | 54 | 134 | 0.0 | 0.0 | 0.67 | 0.87 | 0.17 | 90 | 1007.1 |
| 20260903105333 | 54 | 99 | 0.0 | 0.0 | 0.63 | 0.83 | 0.16 | 90 | 1007.0 |
| 20260903104828 | 55 | 39 | 0.0 | 0.0 | 0.63 | 0.83 | 0.16 | 88 | 1007.1 |
| 20260903104318 | 55 | 285 | 0.0 | 0.0 | 0.63 | 0.83 | 0.16 | 85 | 1007.1 |
| 20260903103846 | 56 | 15 | 0.0 | 0.0 | 0.63 | 0.83 | 0.16 | 83 | 1007.0 |
| 20260903103330 | 56 | 262 | 0.0 | 8.0 | 0.59 | 0.79 | 0.15 | 83 | 1006.9 |
| 20260903103057 | 56 | 266 | 0.0 | 8.0 | 0.15 | 0.20 | 0.15 | 83 | 1005.9 |
| 20260903102837 | 57 | 309 | 0.0 | 9.0 | 0.59 | 0.79 | 0.15 | 81 | 1006.8 |
| 20260903102343 | 58 | 282 | 5.0 | 12.0 | 0.51 | 0.71 | 0.13 | 78 | 1006.8 |
| 20260903101829 | 58 | 277 | 8.0 | 12.0 | 0.47 | 0.67 | 0.12 | 78 | 1006.7 |
| 20260903101608 | 58 | 274 | 7.0 | 12.0 | 0.11 | 0.16 | 0.11 | 79 | 1005.5 |
| 20260903101323 | 59 | 294 | 7.0 | 11.0 | 0.39 | 0.59 | 0.10 | 80 | 1006.5 |
| 20260903100819 | 60 | 301 | 3.0 | 9.0 | 0.31 | 0.51 | 0.08 | 76 | 1006.5 |
| 20260903100332 | 61 | 258 | 4.0 | 9.0 | 0.04 | 0.24 | 0.01 | 72 | 1006.3 |
| 20260903100104 | 61 | 271 | 6.0 | 11.0 | 0.01 | 0.06 | 0.01 | 76 | 1005.2 |
| 20260903095824 | 61 | 249 | 7.0 | 14.0 | 0.00 | 0.20 | 0.00 | 71 | 1006.2 |
| 20260903095334 | 61 | 255 | 9.0 | 15.0 | 0.00 | 0.20 | 0.00 | 66 | 1006.2 |
| 20260903094844 | 61 | 269 | 7.0 | 13.0 | 0.00 | 0.20 | 0.00 | 64 | 1006.1 |
| 20260903094559 | 61 | 264 | 6.0 | 10.0 | 0.00 | 0.05 | 0.00 | 71 | 1004.8 |
| 20260903094344 | 61 | 255 | 4.0 | 10.0 | 0.00 | 0.20 | 0.00 | 73 | 1005.9 |
| 20260903093830 | 61 | 249 | 0.0 | 0.0 | 0.00 | 0.20 | 0.00 | 77 | 1005.9 |
| 20260903093347 | 60 | 181 | 0.0 | 0.0 | 0.00 | 0.20 | 0.00 | 87 | 1005.8 |
| 20260903093107 | 60 | 96 | 0.0 | 0.0 | 0.00 | 0.05 | 0.00 | 87 | 1004.6 |
| 20260903092832 | 60 | 77 | 0.0 | 0.0 | 0.00 | 0.20 | 0.00 | 87 | 1005.7 |
| 20260903092321 | 60 | 353 | 0.0 | 0.0 | 0.00 | 0.20 | 0.00 | 86 | 1005.6 |
| 20260903091828 | 60 | 359 | 0.0 | 0.0 | 0.00 | 0.20 | 0.00 | 88 | 1005.5 |
| 20260903091559 | 60 | 30 | 0.0 | 0.0 | 0.00 | 0.05 | 0.00 | 87 | 1004.3 |
| 20260903091352 | 60 | 30 | 0.0 | 0.0 | 0.00 | 0.20 | 0.00 | 87 | 1005.4 |
| 20260903090838 | 60 | 26 | 0.0 | 0.0 | 0.00 | 0.20 | 0.00 | 88 | 1005.4 |
| 20260903090329 | 60 | 25 | 0.0 | 0.0 | 0.00 | 0.20 | 0.00 | 88 | 1005.5 |
| 20260903090111 | 59 | 25 | 0.0 | 0.0 | 0.00 | 0.05 | 0.00 | 88 | 1004.2 |
| 20260903085829 | 60 | 60 | 0.0 | 0.0 | 0.00 | 0.20 | 0.00 | 88 | 1005.3 |
| 20260903085328 | 60 | 50 | 0.0 | 0.0 | 0.00 | 0.20 | 0.00 | 87 | 1005.3 |
| 20260903084836 | 60 | 41 | 0.0 | 0.0 | 0.00 | 0.20 | 0.00 | 88 | 1005.2 |
| 20260903084614 | 60 | 56 | 0.0 | 0.0 | 0.00 | 0.05 | 0.00 | 88 | 1004.0 |
| 20260903084324 | 60 | 50 | 0.0 | 0.0 | 0.00 | 0.20 | 0.00 | 88 | 1005.2 |
| 20260903083837 | 61 | 86 | 0.0 | 0.0 | 0.00 | 0.20 | 0.00 | 87 | 1005.2 |
| 20260903083341 | 61 | 91 | 0.0 | 0.0 | 0.00 | 0.20 | 0.00 | 87 | 1005.1 |
| 20260903082843 | 61 | 93 | 0.0 | 0.0 | 0.00 | 0.20 | 0.00 | 87 | 1005.0 |
| 20260903082326 | 61 | 130 | 0.0 | 0.0 | 0.00 | 0.20 | 0.00 | 87 | 1005.1 |
| 20260903081834 | 60 | 134 | 0.0 | 0.0 | 0.00 | 0.20 | 0.00 | 87 | 1005.1 |
| 20260903081616 | 60 | 156 | 0.0 | 0.0 | 0.00 | 0.05 | 0.00 | 87 | 1003.9 |
| 20260903081350 | 60 | 160 | 0.0 | 0.0 | 0.00 | 0.20 | 0.00 | 87 | 1004.9 |
| 20260903080851 | 60 | 146 | 0.0 | 0.0 | 0.00 | 0.20 | 0.00 | 87 | 1004.9 |
| 20260903080337 | 60 | 150 | 0.0 | 0.0 | 0.00 | 0.20 | 0.00 | 86 | 1004.9 |
| 20260903080005 | 59 | 193 | 0.0 | 0.0 | 0.00 | 0.05 | 0.00 | 86 | 1003.7 |
| 20260903075826 | 60 | 170 | 0.0 | 0.0 | 0.00 | 0.20 | 0.00 | 86 | 1004.9 |
| 20260903075322 | 60 | 165 | 0.0 | 0.0 | 0.00 | 0.20 | 0.00 | 86 | 1004.8 |
| 20260903074828 | 60 | 192 | 0.0 | 0.0 | 0.04 | 0.20 | 0.00 | 87 | 1004.8 |
| 20260903074609 | 59 | 245 | 0.0 | 0.0 | 0.01 | 0.05 | 0.00 | 87 | 1003.6 |
| 20260903074334 | 60 | 228 | 0.0 | 0.0 | 0.04 | 0.20 | 0.00 | 87 | 1004.9 |
| 20260903073834 | 60 | 139 | 0.0 | 0.0 | 0.04 | 0.20 | 0.00 | 87 | 1004.8 |
| 20260903073334 | 60 | 166 | 0.0 | 0.0 | 0.04 | 0.20 | 0.00 | 87 | 1004.8 |
| 20260903073109 | 59 | 154 | 0.0 | 0.0 | 0.01 | 0.05 | 0.00 | 87 | 1003.6 |
| 20260903072829 | 60 | 85 | 0.0 | 0.0 | 0.04 | 0.20 | 0.00 | 87 | 1004.6 |
| 20260903072328 | 60 | 84 | 0.0 | 0.0 | 0.04 | 0.20 | 0.00 | 88 | 1004.6 |
| 20260903071830 | 60 | 44 | 0.0 | 0.0 | 0.04 | 0.20 | 0.00 | 87 | 1004.5 |
| 20260903071557 | 60 | 44 | 0.0 | 0.0 | 0.01 | 0.05 | 0.00 | 87 | 1003.3 |
| 20260903071336 | 60 | 36 | 0.0 | 0.0 | 0.04 | 0.20 | 0.00 | 87 | 1004.5 |
| 20260903070822 | 60 | 36 | 0.0 | 0.0 | 0.04 | 0.20 | 0.00 | 87 | 1004.5 |
| 20260903070332 | 60 | 54 | 0.0 | 0.0 | 0.04 | 0.20 | 0.00 | 87 | 1004.6 |
| 20260903070114 | 60 | 42 | 0.0 | 0.0 | 0.01 | 0.05 | 0.00 | 87 | 1003.3 |
| 20260903065830 | 60 | 39 | 0.0 | 0.0 | 0.04 | 0.20 | 0.05 | 87 | 1004.5 |
| 20260903065328 | 60 | 51 | 0.0 | 0.0 | 0.04 | 0.20 | 0.05 | 87 | 1004.4 |
| 20260903064825 | 60 | 101 | 0.0 | 0.0 | 0.00 | 0.16 | 0.04 | 86 | 1004.5 |
| 20260903064503 | 59 | 74 | 0.0 | 0.0 | 0.00 | 0.04 | 0.04 | 86 | 1003.2 |
| 20260903064328 | 60 | 75 | 0.0 | 0.0 | 0.00 | 0.16 | 0.04 | 87 | 1004.5 |
| 20260903063851 | 60 | 75 | 0.0 | 0.0 | 0.00 | 0.16 | 0.04 | 87 | 1004.5 |
| 20260903063335 | 60 | 75 | 0.0 | 0.0 | 0.00 | 0.16 | 0.04 | 86 | 1004.6 |
| 20260903063103 | 60 | 68 | 0.0 | 0.0 | 0.00 | 0.04 | 0.04 | 85 | 1003.3 |
| 20260903062901 | 60 | 68 | 0.0 | 0.0 | 0.00 | 0.16 | 0.04 | 85 | 1004.6 |
| 20260903062320 | 61 | 91 | 0.0 | 0.0 | 0.00 | 0.16 | 0.04 | 85 | 1004.6 |
| 20260903061837 | 61 | 36 | 0.0 | 0.0 | 0.00 | 0.16 | 0.04 | 84 | 1004.7 |
| 20260903061347 | 61 | 71 | 0.0 | 0.0 | 0.00 | 0.16 | 0.04 | 83 | 1004.7 |
| 20260903060834 | 62 | 20 | 0.0 | 0.0 | 0.00 | 0.16 | 0.04 | 84 | 1004.7 |
| 20260903060325 | 62 | 201 | 0.0 | 0.0 | 0.00 | 0.16 | 0.04 | 83 | 1004.7 |
| 20260903060011 | 61 | 156 | 0.0 | 0.0 | 0.00 | 0.04 | 0.04 | 83 | 1003.4 |
| 20260903055828 | 62 | 215 | 0.0 | 0.0 | 0.00 | 0.16 | 0.04 | 83 | 1004.7 |
| 20260903055319 | 62 | 226 | 0.0 | 0.0 | 0.00 | 0.16 | 0.04 | 82 | 1004.7 |
| 20260903054830 | 62 | 200 | 0.0 | 0.0 | 0.00 | 0.16 | 0.04 | 82 | 1004.7 |
| 20260903054615 | 61 | 201 | 0.0 | 0.0 | 0.00 | 0.04 | 0.04 | 82 | 1003.5 |
| 20260903054325 | 62 | 219 | 0.0 | 0.0 | 0.00 | 0.16 | 0.04 | 82 | 1004.7 |
| 20260903053822 | 62 | 210 | 0.0 | 0.0 | 0.00 | 0.16 | 0.04 | 82 | 1004.7 |
| 20260903053329 | 62 | 163 | 0.0 | 0.0 | 0.00 | 0.16 | 0.04 | 81 | 1004.6 |
| 20260903053017 | 61 | 155 | 0.0 | 0.0 | 0.00 | 0.04 | 0.04 | 80 | 1003.4 |
| 20260903052841 | 62 | 124 | 0.0 | 0.0 | 0.00 | 0.16 | 0.04 | 80 | 1004.6 |
| 20260903052327 | 62 | 88 | 0.0 | 0.0 | 0.00 | 0.16 | 0.04 | 80 | 1004.6 |
| 20260903051848 | 62 | 92 | 0.0 | 0.0 | 0.00 | 0.16 | 0.04 | 79 | 1004.6 |
| 20260903051602 | 62 | 106 | 0.0 | 0.0 | 0.00 | 0.04 | 0.04 | 80 | 1003.4 |
| 20260903051318 | 62 | 70 | 0.0 | 0.0 | 0.00 | 0.16 | 0.04 | 80 | 1004.6 |
| 20260903050836 | 62 | 43 | 0.0 | 0.0 | 0.00 | 0.16 | 0.04 | 79 | 1004.6 |
| 20260903050316 | 63 | 36 | 0.0 | 0.0 | 0.00 | 0.16 | 0.04 | 77 | 1004.5 |
| 20260903050004 | 62 | 57 | 0.0 | 0.0 | 0.00 | 0.04 | 0.04 | 76 | 1003.2 |
| 20260903045826 | 63 | 34 | 0.0 | 0.0 | 0.00 | 0.16 | 0.04 | 77 | 1004.5 |
| 20260903045337 | 63 | 19 | 0.0 | 0.0 | 0.00 | 0.16 | 0.04 | 75 | 1004.4 |
| 20260903044823 | 63 | 358 | 0.0 | 0.0 | 0.00 | 0.16 | 0.04 | 74 | 1004.3 |
| 20260903044607 | 62 | 34 | 0.0 | 0.0 | 0.00 | 0.04 | 0.04 | 73 | 1002.9 |
| 20260903044359 | 63 | 36 | 0.0 | 0.0 | 0.00 | 0.16 | 0.04 | 73 | 1004.2 |
| 20260903043842 | 63 | 36 | 0.0 | 0.0 | 0.00 | 0.16 | 0.04 | 74 | 1004.1 |
| 20260903043318 | 63 | 108 | 0.0 | 0.0 | 0.00 | 0.16 | 0.04 | 73 | 1004.0 |
| 20260903043101 | 62 | 113 | 0.0 | 0.0 | 0.00 | 0.04 | 0.04 | 73 | 1002.5 |
| 20260903042844 | 63 | 96 | 0.0 | 0.0 | 0.00 | 0.16 | 0.04 | 73 | 1003.8 |
| 20260903042328 | 63 | 27 | 0.0 | 0.0 | 0.00 | 0.16 | 0.04 | 74 | 1003.7 |
| 20260903041900 | 63 | 85 | 0.0 | 0.0 | 0.00 | 0.16 | 0.04 | 74 | 1003.8 |
| 20260903041606 | 63 | 86 | 0.0 | 0.0 | 0.00 | 0.04 | 0.04 | 73 | 1002.4 |
| 20260903041332 | 63 | 98 | 0.0 | 0.0 | 0.00 | 0.16 | 0.04 | 73 | 1003.7 |
| 20260903040818 | 64 | 60 | 0.0 | 0.0 | 0.00 | 0.16 | 0.04 | 73 | 1003.6 |
| 20260903035826 | 64 | 31 | 0.0 | 0.0 | 0.00 | 0.16 | 0.04 | 71 | 1003.5 |
| 20260903035355 | 64 | 27 | 0.0 | 0.0 | 0.00 | 0.16 | 0.04 | 71 | 1003.5 |
| 20260903034816 | 64 | 105 | 0.0 | 0.0 | 0.00 | 0.16 | 0.04 | 71 | 1003.6 |
| 20260903034610 | 63 | 114 | 0.0 | 0.0 | 0.00 | 0.04 | 0.04 | 71 | 1002.2 |
| 20260903034333 | 64 | 49 | 0.0 | 0.0 | 0.00 | 0.16 | 0.04 | 71 | 1003.5 |
| 20260903033855 | 64 | 108 | 0.0 | 1.0 | 0.00 | 0.16 | 0.04 | 72 | 1003.4 |
| 20260903033109 | 63 | 40 | 0.0 | 5.0 | 0.00 | 0.04 | 0.04 | 72 | 1002.0 |
| 20260903032834 | 64 | 54 | 0.0 | 5.0 | 0.00 | 0.16 | 0.04 | 71 | 1003.3 |
| 20260903032333 | 64 | 56 | 1.0 | 7.0 | 0.00 | 0.16 | 0.04 | 71 | 1003.1 |
| 20260903031819 | 64 | 68 | 2.0 | 8.0 | 0.00 | 0.16 | 0.04 | 71 | 1003.1 |
| 20260903031605 | 63 | 66 | 0.0 | 0.0 | 0.00 | 0.04 | 0.04 | 72 | 1001.7 |
| 20260903031328 | 64 | 38 | 0.0 | 0.0 | 0.00 | 0.16 | 0.04 | 71 | 1003.0 |
| 20260903030847 | 64 | 31 | 0.0 | 0.0 | 0.00 | 0.16 | 0.04 | 72 | 1002.9 |
| 20260903030344 | 64 | 34 | 0.0 | 0.0 | 0.00 | 0.16 | 0.04 | 73 | 1002.8 |
| 20260903030056 | 63 | 58 | 0.0 | 0.0 | 0.00 | 0.04 | 0.04 | 72 | 1001.5 |
| 20260903025855 | 64 | 70 | 0.0 | 0.0 | 0.00 | 0.16 | 0.04 | 71 | 1002.8 |
| 20260903025337 | 65 | 30 | 0.0 | 0.0 | 0.00 | 0.16 | 0.04 | 72 | 1002.8 |
| 20260903024854 | 65 | 77 | 0.0 | 0.0 | 0.00 | 0.16 | 0.04 | 71 | 1002.7 |
| 20260903024606 | 64 | 77 | 0.0 | 0.0 | 0.00 | 0.04 | 0.04 | 72 | 1001.3 |
| 20260903024332 | 65 | 31 | 0.0 | 0.0 | 0.00 | 0.16 | 0.04 | 70 | 1002.7 |
| 20260903023840 | 65 | 64 | 0.0 | 0.0 | 0.00 | 0.16 | 0.04 | 69 | 1002.7 |
| 20260903023328 | 65 | 87 | 0.0 | 0.0 | 0.00 | 0.16 | 0.04 | 68 | 1002.9 |
| 20260903023100 | 65 | 101 | 0.0 | 0.0 | 0.00 | 0.04 | 0.04 | 69 | 1001.5 |
| 20260903022828 | 65 | 76 | 0.0 | 0.0 | 0.00 | 0.16 | 0.04 | 69 | 1002.9 |
| 20260903022350 | 65 | 49 | 0.0 | 0.0 | 0.00 | 0.16 | 0.04 | 73 | 1002.8 |
| 20260903021841 | 66 | 40 | 0.0 | 5.0 | 0.00 | 0.16 | 0.04 | 70 | 1002.9 |
| 20260903021611 | 65 | 74 | 0.0 | 5.0 | 0.00 | 0.04 | 0.04 | 69 | 1001.5 |
| 20260903021355 | 66 | 91 | 1.0 | 5.0 | 0.00 | 0.16 | 0.04 | 68 | 1002.9 |
| 20260903020839 | 66 | 103 | 0.0 | 7.0 | 0.00 | 0.16 | 0.04 | 66 | 1003.0 |
| 20260903020342 | 66 | 104 | 3.0 | 7.0 | 0.00 | 0.16 | 0.04 | 66 | 1002.8 |
| 20260903015846 | 66 | 71 | 2.0 | 6.0 | 0.00 | 0.16 | 0.04 | 68 | 1002.8 |
| 20260903015332 | 66 | 93 | 1.0 | 5.0 | 0.00 | 0.16 | 0.04 | 68 | 1002.7 |
| 20260903014828 | 66 | 95 | 2.0 | 8.0 | 0.00 | 0.16 | 0.04 | 68 | 1002.6 |
| 20260903014319 | 66 | 98 | 2.0 | 8.0 | 0.00 | 0.16 | 0.04 | 68 | 1002.5 |
| 20260903013841 | 66 | 94 | 0.0 | 6.0 | 0.00 | 0.16 | 0.04 | 68 | 1002.3 |
| 20260903013333 | 67 | 66 | 1.0 | 7.0 | 0.00 | 0.16 | 0.04 | 67 | 1002.4 |
| 20260903013012 | 66 | 67 | 2.0 | 7.0 | 0.00 | 0.04 | 0.04 | 67 | 1000.8 |
| 20260903012834 | 67 | 88 | 1.0 | 4.0 | 0.00 | 0.16 | 0.04 | 67 | 1002.3 |
| 20260903012331 | 67 | 117 | 0.0 | 0.0 | 0.00 | 0.16 | 0.04 | 68 | 1002.4 |
| 20260903011821 | 67 | 29 | 0.0 | 0.0 | 0.00 | 0.16 | 0.04 | 69 | 1002.5 |
| 20260903011606 | 66 | 89 | 0.0 | 0.0 | 0.00 | 0.04 | 0.04 | 69 | 1000.9 |
| 20260903011338 | 67 | 144 | 0.0 | 0.0 | 0.00 | 0.16 | 0.04 | 69 | 1002.4 |
| 20260903010830 | 66 | 58 | 0.0 | 0.0 | 0.00 | 0.16 | 0.04 | 69 | 1002.4 |
| 20260903010328 | 66 | 68 | 0.0 | 0.0 | 0.00 | 0.16 | 0.04 | 70 | 1002.3 |
| 20260903010111 | 66 | 40 | 0.0 | 0.0 | 0.00 | 0.04 | 0.04 | 70 | 1000.9 |
| 20260903005832 | 67 | 54 | 0.0 | 0.0 | 0.00 | 0.16 | 0.04 | 70 | 1002.3 |
| 20260903005316 | 67 | 43 | 0.0 | 0.0 | 0.00 | 0.16 | 0.04 | 71 | 1002.4 |
| 20260903004840 | 67 | 61 | 0.0 | 0.0 | 0.00 | 0.16 | 0.04 | 71 | 1002.5 |
| 20260903004618 | 66 | 70 | 0.0 | 0.0 | 0.00 | 0.04 | 0.04 | 71 | 1000.9 |
| 20260903004322 | 66 | 71 | 0.0 | 0.0 | 0.00 | 0.16 | 0.04 | 72 | 1002.3 |
| 20260903003829 | 66 | 39 | 0.0 | 0.0 | 0.00 | 0.16 | 0.04 | 71 | 1002.3 |
| 20260903003355 | 66 | 61 | 0.0 | 0.0 | 0.00 | 0.16 | 0.04 | 71 | 1002.3 |
| 20260903003116 | 66 | 62 | 0.0 | 4.0 | 0.00 | 0.04 | 0.04 | 71 | 1000.9 |
| 20260903002820 | 66 | 34 | 0.0 | 4.0 | 0.00 | 0.16 | 0.04 | 70 | 1002.3 |
| 20260903002350 | 66 | 21 | 0.0 | 2.0 | 0.00 | 0.16 | 0.04 | 68 | 1002.2 |
| 20260903001830 | 66 | 48 | 0.0 | 5.0 | 0.00 | 0.16 | 0.04 | 67 | 1002.2 |
| 20260903001605 | 66 | 70 | 0.0 | 5.0 | 0.00 | 0.04 | 0.04 | 67 | 1000.7 |
| 20260903001321 | 67 | 78 | 1.0 | 5.0 | 0.00 | 0.16 | 0.04 | 67 | 1002.2 |
| 20260903000841 | 67 | 56 | 0.0 | 4.0 | 0.00 | 0.16 | 0.04 | 67 | 1002.2 |
| 20260903000326 | 67 | 68 | 0.0 | 12.0 | 0.00 | 0.16 | 0.04 | 64 | 1002.2 |
| 20260903000010 | 67 | 73 | 0.0 | 12.0 | 0.00 | 0.04 | 0.04 | 64 | 1000.7 |
| 20260902235833 | 68 | 27 | 1.0 | 12.0 | 0.00 | 0.16 | 0.04 | 65 | 1002.1 |
| 20260902235327 | 68 | 22 | 10.0 | 12.0 | 0.00 | 0.16 | 0.04 | 67 | 1002.1 |
| 20260902234839 | 68 | 20 | 10.0 | 12.0 | 0.00 | 0.16 | 0.04 | 71 | 1002.1 |
| 20260902234611 | 68 | 21 | 8.0 | 11.0 | 0.00 | 0.04 | 0.04 | 71 | 1000.6 |
| 20260902234331 | 70 | 31 | 6.0 | 8.0 | 0.00 | 0.16 | 0.04 | 69 | 1002.2 |
| 20260902233832 | 70 | 44 | 0.0 | 7.0 | 0.00 | 0.16 | 0.04 | 68 | 1002.2 |
| 20260902233328 | 70 | 32 | 0.0 | 0.0 | 0.00 | 0.16 | 0.04 | 71 | 1002.1 |
| 20260902233109 | 69 | 27 | 0.0 | 0.0 | 0.00 | 0.04 | 0.04 | 74 | 1000.7 |
| 20260902232835 | 70 | 19 | 0.0 | 0.0 | 0.00 | 0.16 | 0.04 | 70 | 1002.2 |
| 20260902232324 | 70 | 291 | 0.0 | 0.0 | 0.00 | 0.16 | 0.04 | 65 | 1002.1 |
| 20260902231832 | 69 | 193 | 0.0 | 5.0 | 0.00 | 0.16 | 0.04 | 67 | 1002.1 |
| 20260902231515 | 68 | 141 | 0.0 | 6.0 | 0.00 | 0.04 | 0.04 | 68 | 1000.6 |
| 20260902231331 | 69 | 216 | 0.0 | 7.0 | 0.00 | 0.16 | 0.04 | 67 | 1002.1 |
| 20260902230826 | 69 | 232 | 1.0 | 7.0 | 0.00 | 0.16 | 0.04 | 71 | 1002.3 |
| 20260902230330 | 69 | 236 | 0.0 | 7.0 | 0.00 | 0.16 | 0.04 | 66 | 1002.3 |
| 20260902230106 | 68 | 191 | 0.0 | 7.0 | 0.00 | 0.04 | 0.04 | 68 | 1001.0 |
| 20260902225845 | 69 | 246 | 0.0 | 7.0 | 0.00 | 0.16 | 0.04 | 69 | 1002.6 |
| 20260902225336 | 70 | 232 | 3.0 | 7.0 | 0.00 | 0.16 | 0.04 | 70 | 1002.7 |
| 20260902224827 | 71 | 226 | 3.0 | 6.0 | 0.00 | 0.16 | 0.04 | 67 | 1002.7 |
| 20260902224606 | 70 | 210 | 4.0 | 7.0 | 0.00 | 0.04 | 0.04 | 68 | 1001.1 |
| 20260902224329 | 71 | 228 | 1.0 | 11.0 | 0.00 | 0.16 | 0.04 | 63 | 1002.5 |
| 20260902223825 | 71 | 231 | 4.0 | 11.0 | 0.00 | 0.16 | 0.04 | 58 | 1002.4 |
| 20260902223340 | 72 | 238 | 5.0 | 12.0 | 0.00 | 0.16 | 0.04 | 64 | 1002.5 |
| 20260902223058 | 72 | 229 | 0.0 | 1.0 | 0.00 | 0.04 | 0.04 | 64 | 1001.0 |
| 20260902222820 | 72 | 231 | 0.0 | 0.0 | 0.00 | 0.16 | 0.04 | 63 | 1002.4 |
| 20260902222347 | 72 | 229 | 0.0 | 0.0 | 0.00 | 0.16 | 0.04 | 63 | 1002.4 |
| 20260902221832 | 73 | 226 | 0.0 | 0.0 | 0.00 | 0.16 | 0.04 | 66 | 1002.3 |
| 20260902221616 | 72 | 239 | 0.0 | 0.0 | 0.00 | 0.04 | 0.04 | 65 | 1000.8 |
| 20260902221354 | 73 | 245 | 0.0 | 0.0 | 0.00 | 0.16 | 0.04 | 60 | 1002.3 |
| 20260902220836 | 73 | 257 | 0.0 | 0.0 | 0.00 | 0.16 | 0.04 | 63 | 1002.5 |
| 20260902220330 | 73 | 270 | 0.0 | 0.0 | 0.00 | 0.16 | 0.04 | 60 | 1002.5 |
| 20260902220101 | 72 | 269 | 0.0 | 0.0 | 0.00 | 0.04 | 0.04 | 59 | 1001.1 |
| 20260902215834 | 73 | 274 | 0.0 | 0.0 | 0.00 | 0.16 | 0.04 | 59 | 1002.4 |
| 20260902215327 | 73 | 16 | 0.0 | 0.0 | 0.00 | 0.16 | 0.04 | 58 | 1002.7 |
| 20260902214828 | 73 | 343 | 0.0 | 0.0 | 0.00 | 0.16 | 0.04 | 59 | 1002.7 |
| 20260902214557 | 72 | 16 | 0.0 | 0.0 | 0.00 | 0.04 | 0.04 | 59 | 1001.2 |
| 20260902214328 | 73 | 23 | 0.0 | 0.0 | 0.00 | 0.16 | 0.04 | 61 | 1002.8 |
| 20260902213833 | 73 | 27 | 0.0 | 0.0 | 0.00 | 0.16 | 0.04 | 60 | 1002.8 |
| 20260902213333 | 72 | 324 | 0.0 | 0.0 | 0.00 | 0.16 | 0.04 | 62 | 1002.9 |
| 20260902213103 | 72 | 305 | 0.0 | 0.0 | 0.00 | 0.04 | 0.04 | 61 | 1001.5 |
| 20260902212818 | 72 | 339 | 0.0 | 0.0 | 0.00 | 0.16 | 0.04 | 61 | 1003.0 |
| 20260902212324 | 72 | 28 | 0.0 | 0.0 | 0.00 | 0.16 | 0.04 | 61 | 1003.1 |
| 20260902211824 | 72 | 32 | 0.0 | 0.0 | 0.00 | 0.16 | 0.04 | 61 | 1003.1 |
| 20260902211505 | 71 | 19 | 0.0 | 0.0 | 0.00 | 0.04 | 0.04 | 60 | 1001.6 |
| 20260902211328 | 72 | 9 | 0.0 | 0.0 | 0.00 | 0.16 | 0.04 | 61 | 1003.2 |
| 20260902210830 | 71 | 18 | 0.0 | 0.0 | 0.00 | 0.16 | 0.04 | 61 | 1003.3 |
| 20260902210336 | 71 | 15 | 0.0 | 0.0 | 0.00 | 0.16 | 0.04 | 62 | 1003.4 |
| 20260902210122 | 71 | 34 | 0.0 | 0.0 | 0.00 | 0.04 | 0.04 | 61 | 1001.9 |
| 20260902205850 | 71 | 34 | 0.0 | 0.0 | 0.00 | 0.16 | 0.04 | 60 | 1003.4 |
| 20260902205328 | 71 | 36 | 0.0 | 0.0 | 0.00 | 0.16 | 0.04 | 61 | 1003.6 |
| 20260902204834 | 71 | 315 | 0.0 | 0.0 | 0.00 | 0.16 | 0.04 | 62 | 1003.5 |
| 20260902204607 | 70 | 30 | 0.0 | 0.0 | 0.00 | 0.04 | 0.04 | 65 | 1002.1 |
| 20260902204324 | 70 | 356 | 0.0 | 0.0 | 0.00 | 0.16 | 0.04 | 62 | 1003.5 |
| 20260902203818 | 70 | 12 | 0.0 | 0.0 | 0.00 | 0.16 | 0.04 | 65 | 1003.6 |
| 20260902203347 | 70 | 21 | 0.0 | 0.0 | 0.00 | 0.16 | 0.04 | 64 | 1003.7 |
| 20260902203056 | 70 | 22 | 0.0 | 0.0 | 0.00 | 0.04 | 0.04 | 63 | 1002.2 |
| 20260902202855 | 70 | 13 | 0.0 | 0.0 | 0.00 | 0.16 | 0.04 | 64 | 1003.7 |
| 20260902202335 | 70 | 351 | 0.0 | 0.0 | 0.00 | 0.16 | 0.04 | 62 | 1003.7 |
| 20260902201830 | 70 | 291 | 0.0 | 0.0 | 0.00 | 0.16 | 0.04 | 62 | 1003.8 |
| 20260902201330 | 70 | 278 | 0.0 | 0.0 | 0.00 | 0.16 | 0.04 | 61 | 1004.0 |
| 20260902200828 | 70 | 281 | 0.0 | 0.0 | 0.00 | 0.16 | 0.04 | 61 | 1004.0 |
| 20260902200330 | 70 | 253 | 0.0 | 0.0 | 0.00 | 0.16 | 0.04 | 62 | 1004.1 |
| 20260902200117 | 69 | 248 | 0.0 | 0.0 | 0.00 | 0.04 | 0.04 | 62 | 1002.6 |
| 20260902195838 | 69 | 34 | 0.0 | 0.0 | 0.00 | 0.16 | 0.04 | 63 | 1004.2 |
| 20260902195345 | 69 | 40 | 0.0 | 0.0 | 0.00 | 0.16 | 0.04 | 66 | 1004.2 |
| 20260902194830 | 68 | 43 | 0.0 | 0.0 | 0.00 | 0.16 | 0.04 | 65 | 1004.3 |
| 20260902194603 | 68 | 34 | 0.0 | 0.0 | 0.00 | 0.04 | 0.04 | 65 | 1002.9 |
| 20260902194337 | 68 | 34 | 0.0 | 0.0 | 0.00 | 0.16 | 0.04 | 65 | 1004.4 |
| 20260902193850 | 68 | 21 | 0.0 | 0.0 | 0.00 | 0.16 | 0.04 | 66 | 1004.4 |
| 20260902193011 | 67 | 21 | 0.0 | 0.0 | 0.00 | 0.04 | 0.04 | 67 | 1003.0 |
| 20260902192833 | 68 | 18 | 0.0 | 0.0 | 0.00 | 0.16 | 0.04 | 68 | 1004.5 |
| 20260902192317 | 67 | 30 | 0.0 | 0.0 | 0.00 | 0.16 | 0.04 | 69 | 1004.6 |
| 20260902191844 | 68 | 29 | 0.0 | 0.0 | 0.00 | 0.16 | 0.04 | 69 | 1004.7 |
| 20260902191602 | 67 | 21 | 0.0 | 0.0 | 0.00 | 0.04 | 0.04 | 68 | 1003.3 |
| 20260902191318 | 68 | 21 | 0.0 | 0.0 | 0.00 | 0.16 | 0.04 | 69 | 1004.8 |
| 20260902190839 | 68 | 25 | 0.0 | 0.0 | 0.00 | 0.16 | 0.04 | 68 | 1004.8 |
| 20260902190332 | 68 | 23 | 0.0 | 0.0 | 0.00 | 0.16 | 0.04 | 68 | 1004.9 |
| 20260902190111 | 67 | 351 | 0.0 | 0.0 | 0.00 | 0.04 | 0.04 | 68 | 1003.4 |
| 20260902185828 | 68 | 352 | 0.0 | 0.0 | 0.00 | 0.16 | 0.04 | 69 | 1004.9 |
| 20260902185321 | 68 | 245 | 0.0 | 0.0 | 0.00 | 0.16 | 0.04 | 69 | 1004.9 |
| 20260902184831 | 67 | 248 | 0.0 | 0.0 | 0.00 | 0.16 | 0.04 | 71 | 1004.9 |
| 20260902184516 | 66 | 251 | 0.0 | 0.0 | 0.00 | 0.04 | 0.04 | 71 | 1003.5 |
| 20260902184340 | 67 | 251 | 0.0 | 0.0 | 0.00 | 0.16 | 0.04 | 70 | 1004.9 |
| 20260902183835 | 67 | 195 | 0.0 | 0.0 | 0.00 | 0.16 | 0.04 | 73 | 1004.9 |
| 20260902183328 | 66 | 208 | 0.0 | 4.0 | 0.00 | 0.16 | 0.04 | 74 | 1004.9 |
| 20260902183107 | 66 | 228 | 0.0 | 4.0 | 0.00 | 0.04 | 0.04 | 73 | 1003.5 |
| 20260902182837 | 66 | 215 | 1.0 | 4.0 | 0.00 | 0.16 | 0.04 | 73 | 1005.0 |
| 20260902182316 | 66 | 235 | 0.0 | 0.0 | 0.00 | 0.16 | 0.04 | 74 | 1004.9 |
| 20260902181821 | 66 | 229 | 0.0 | 0.0 | 0.00 | 0.16 | 0.04 | 72 | 1004.9 |
| 20260902181506 | 66 | 249 | 0.0 | 0.0 | 0.00 | 0.04 | 0.04 | 71 | 1003.6 |
| 20260902181329 | 66 | 188 | 0.0 | 0.0 | 0.00 | 0.16 | 0.04 | 71 | 1005.1 |
| 20260902180844 | 66 | 231 | 0.0 | 0.0 | 0.00 | 0.16 | 0.04 | 69 | 1005.2 |
| 20260902180334 | 66 | 288 | 0.0 | 0.0 | 0.00 | 0.16 | 0.04 | 70 | 1005.2 |
| 20260902175822 | 65 | 277 | 0.0 | 0.0 | 0.00 | 0.16 | 0.04 | 73 | 1005.3 |
| 20260902175325 | 65 | 286 | 0.0 | 0.0 | 0.00 | 0.16 | 0.04 | 73 | 1005.3 |
| 20260902174828 | 65 | 333 | 0.0 | 0.0 | 0.00 | 0.16 | 0.04 | 74 | 1005.4 |
| 20260902174554 | 65 | 11 | 0.0 | 0.0 | 0.00 | 0.04 | 0.04 | 74 | 1004.0 |
| 20260902174332 | 65 | 354 | 0.0 | 0.0 | 0.00 | 0.16 | 0.04 | 75 | 1005.4 |
| 20260902173827 | 65 | 20 | 0.0 | 0.0 | 0.00 | 0.16 | 0.04 | 69 | 1005.2 |
| 20260902173320 | 65 | 25 | 0.0 | 0.0 | 0.00 | 0.16 | 0.04 | 75 | 1005.1 |
| 20260902173058 | 65 | 20 | 0.0 | 0.0 | 0.00 | 0.04 | 0.04 | 75 | 1003.6 |
| 20260902172831 | 65 | 51 | 0.0 | 0.0 | 0.00 | 0.16 | 0.04 | 76 | 1005.3 |
| 20260902172323 | 65 | 98 | 0.0 | 0.0 | 0.00 | 0.16 | 0.04 | 77 | 1005.4 |
| 20260902171822 | 64 | 78 | 0.0 | 0.0 | 0.00 | 0.16 | 0.04 | 76 | 1005.0 |
| 20260902171604 | 63 | 94 | 0.0 | 0.0 | 0.00 | 0.04 | 0.04 | 75 | 1003.6 |
| 20260902171333 | 64 | 51 | 0.0 | 0.0 | 0.00 | 0.16 | 0.04 | 74 | 1005.2 |
| 20260902170830 | 63 | 271 | 0.0 | 0.0 | 0.00 | 0.16 | 0.04 | 74 | 1005.5 |
| 20260902170332 | 63 | 283 | 0.0 | 0.0 | 0.00 | 0.16 | 0.04 | 76 | 1005.6 |
| 20260902170130 | 63 | 257 | 0.0 | 0.0 | 0.00 | 0.04 | 0.04 | 77 | 1004.3 |
| 20260902165819 | 63 | 263 | 0.0 | 0.0 | 0.08 | 0.16 | 0.04 | 78 | 1005.9 |
| 20260902165317 | 63 | 75 | 0.0 | 0.0 | 0.08 | 0.16 | 0.04 | 79 | 1005.9 |
| 20260902164830 | 63 | 75 | 0.0 | 0.0 | 0.08 | 0.16 | 0.04 | 81 | 1005.9 |
| 20260902164616 | 62 | 75 | 0.0 | 0.0 | 0.02 | 0.04 | 0.04 | 81 | 1004.5 |
| 20260902164318 | 62 | 61 | 0.0 | 0.0 | 0.08 | 0.16 | 0.04 | 80 | 1005.8 |
| 20260902163821 | 62 | 330 | 0.0 | 0.0 | 0.08 | 0.16 | 0.04 | 79 | 1005.8 |
| 20260902163330 | 62 | 330 | 0.0 | 0.0 | 0.08 | 0.16 | 0.04 | 81 | 1005.7 |
| 20260902163103 | 62 | 282 | 0.0 | 1.0 | 0.02 | 0.04 | 0.04 | 83 | 1004.3 |
| 20260902162821 | 62 | 262 | 0.0 | 1.0 | 0.08 | 0.16 | 0.04 | 82 | 1005.6 |
| 20260902162331 | 62 | 146 | 0.0 | 5.0 | 0.08 | 0.16 | 0.04 | 81 | 1005.5 |
| 20260902161824 | 62 | 37 | 0.0 | 5.0 | 0.08 | 0.16 | 0.04 | 81 | 1005.3 |
| 20260902161502 | 62 | 20 | 0.0 | 5.0 | 0.03 | 0.04 | 0.04 | 83 | 1003.6 |
| 20260902161327 | 62 | 32 | 0.0 | 0.0 | 0.16 | 0.16 | 0.04 | 82 | 1004.9 |
| 20260902160836 | 62 | 21 | 0.0 | 0.0 | 0.16 | 0.16 | 0.04 | 82 | 1005.0 |
| 20260902160321 | 63 | 34 | 0.0 | 6.0 | 0.16 | 0.16 | 0.04 | 78 | 1004.9 |
| 20260902160109 | 62 | 79 | 0.0 | 8.0 | 0.03 | 0.03 | 0.03 | 78 | 1003.5 |
| 20260902155820 | 62 | 95 | 0.0 | 9.0 | 0.08 | 0.08 | 0.02 | 77 | 1004.8 |
| 20260902155328 | 62 | 96 | 6.0 | 9.0 | 0.08 | 0.08 | 0.02 | 79 | 1004.8 |
| 20260902154832 | 62 | 108 | 3.0 | 6.0 | 0.08 | 0.08 | 0.02 | 81 | 1004.6 |
| 20260902154327 | 62 | 108 | 0.0 | 7.0 | 0.08 | 0.08 | 0.02 | 81 | 1004.6 |
| 20260902153851 | 62 | 96 | 4.0 | 7.0 | 0.08 | 0.08 | 0.02 | 79 | 1004.6 |
| 20260902153333 | 63 | 76 | 0.0 | 3.0 | 0.08 | 0.08 | 0.02 | 77 | 1004.5 |
| 20260902153103 | 63 | 86 | 0.0 | 7.0 | 0.02 | 0.02 | 0.02 | 78 | 1003.2 |
| 20260902152819 | 64 | 72 | 0.0 | 16.0 | 0.08 | 0.08 | 0.02 | 76 | 1004.8 |